Tracking 28790 objects as of 19-Apr-2024
HD Live streaming from Space Station
objects crossing your sky now

STARLINK-1722

Track STARLINK-1722 now!
10-day predictions
STARLINK-1722 is classified as:


NORAD ID: 46361
Int'l Code: 2020-062AN
Perigee: 553.2 km
Apogee: 555.7 km
Inclination: 53.1 °
Period: 95.6 minutes
Semi major axis: 6925 km
RCS: Unknown
Launch date: September 3, 2020
Source: United States (US)
Launch site: AIR FORCE EASTERN TEST RANGE (AFETR)
Your satellite tracking list
Your tracking list is empty




NASA's NSSDC Master Catalog

Two Line Element Set (TLE):
1 46361U 20062AN  24110.18965287  .00025413  00000-0  17200-2 0  9991
2 46361  53.0540 186.8900 0001776 128.5507 231.5641 15.06373628201185
Source of the keplerian elements: AFSPC